Retour au catalogue

IRIDIUM 120

ActifCommunicationsPO
NORAD 42805·PAYLOAD·🇺🇸 United States

Lancé Jun 25, 2017 depuis Vandenberg Space Force Base

Loading…

Prochains Passages (prochaines 24 heures)

TLE

FraisSource: CelesTrak SupGP

Époque: Sep 14, 2026, 21:46 UTC

1 42805C 17039C   26257.90729167  .00003122  00000+0  11162-2 0  2579
2 42805  86.3908 284.4470 0002221  92.2897  14.8125 14.34213479    18

Suivez IRIDIUM 120 en temps réel avec AllMySat

Download on the App Store